This is the latest recevied weather packets stored in our database for station/object KB9GXK. If no packets are shown the sender has not sent any weather packets the latest 10 day(s).
| Time | Temp. | Humidity | Pressure | Rain* | Wind** | Luminosity | Snow |
|---|---|---|---|---|---|---|---|
| 1778001610 | 14.44° C | 35% | 1009.1 hPa | 0 mm | - | 387 W/m² | - |
| 1778001305 | 13.89° C | 36% | 1009.3 hPa | 0 mm | - | 392 W/m² | - |
| 1778001002 | 13.89° C | 35% | 1009.3 hPa | 0 mm | - | 381 W/m² | - |
| 1778000699 | 13.89° C | 36% | 1009.2 hPa | 0 mm | - | 391 W/m² | - |
| 1778000394 | 13.89° C | 36% | 1009.1 hPa | 0 mm | - | 434 W/m² | - |
| 1778000090 | 13.89° C | 36% | 1009.1 hPa | 0 mm | - | 487 W/m² | - |
| 1777999786 | 13.89° C | 34% | 1009 hPa | 0 mm | - | 392 W/m² | - |
| 1777999483 | 13.89° C | 33% | 1008.9 hPa | 0 mm | - | 522 W/m² | - |
| 1777999181 | 13.33° C | 36% | 1009 hPa | 0 mm | - | 492 W/m² | - |
| 1777998879 | 13.33° C | 35% | 1009.1 hPa | 0 mm | - | 505 W/m² | - |
| 1777998578 | 13.89° C | 36% | 1009.2 hPa | 0 mm | - | 467 W/m² | - |
| 1777998273 | 12.78° C | 40% | 1008.9 hPa | 0 mm | - | 446 W/m² | - |
| 1777997970 | 12.78° C | 40% | 1009.1 hPa | 0 mm | - | 421 W/m² | - |
| 1777997667 | 12.78° C | 40% | 1009.2 hPa | 0 mm | - | 507 W/m² | - |
| 1777997365 | 12.22° C | 41% | 1009.1 hPa | 0 mm | - | 526 W/m² | - |
| 1777997063 | 11.67° C | 42% | 1009.1 hPa | 0 mm | - | 320 W/m² | - |
| 1777996759 | 11.67° C | 41% | 1009.3 hPa | 0 mm | - | 257 W/m² | - |
| 1777996455 | 11.67° C | 41% | 1009 hPa | 0 mm | - | 252 W/m² | - |
| 1777996152 | 12.22° C | 41% | 1009.2 hPa | 0 mm | - | 274 W/m² | - |
| 1777995848 | 11.67° C | 41% | 1008.9 hPa | 0 mm | - | 372 W/m² | - |
| 1777995545 | 11.67° C | 41% | 1009.1 hPa | 0 mm | - | 345 W/m² | - |
| 1777995242 | 11.67° C | 41% | 1009.2 hPa | 0 mm | - | 337 W/m² | - |
| 1777994939 | 11.67° C | 40% | 1009.2 hPa | 0 mm | - | 244 W/m² | - |
| 1777994636 | 11.67° C | 38% | 1009.5 hPa | 0 mm | - | 221 W/m² | - |
| 1777994330 | 11.67° C | 41% | 1009.3 hPa | 0 mm | - | 242 W/m² | - |
* Rain latest hour (hover to see other rain measurements)
** Current wind speed in m/s (hover to see current wind gust speed)